Time,TemperatureF,DewpointF,PressureIn,WindDirection,WindDirectionDegrees,WindSpeedMPH,WindSpeedGustMPH,Humidity,HourlyPrecipIn,Conditions,Clouds,dailyrainin,SolarRadiationWatts/m^2,SoftwareType,DateUTC
2013-03-08 00:12:00,32.0,23.0,-100.00,NNW,328,3.0,21.0,70,0.00,,,0.06,0.000000,,2013-03-08 05:12:00,
2013-03-08 00:22:00,32.0,23.0,-100.00,NNW,328,3.0,21.0,70,0.00,,,0.06,0.000000,,2013-03-08 05:22:00,
2013-03-08 00:33:00,32.0,23.0,-100.00,NNW,328,3.0,21.0,70,0.00,,,0.06,0.000000,,2013-03-08 05:33:00,
2013-03-08 00:42:00,32.0,23.0,-100.00,NNW,328,3.0,21.0,70,0.00,,,0.06,0.000000,,2013-03-08 05:42:00,
2013-03-08 01:11:00,30.0,24.0,-100.00,WSW,256,0.0,64.0,77,0.00,,,0.06,0.000000,,2013-03-08 06:11:00,
2013-03-08 01:22:00,30.0,24.0,-100.00,WSW,256,0.0,64.0,77,0.00,,,0.06,0.000000,,2013-03-08 06:22:00,
2013-03-08 01:32:00,30.0,24.0,-100.00,WSW,256,0.0,64.0,77,0.00,,,0.06,0.000000,,2013-03-08 06:32:00,
2013-03-08 01:42:00,30.0,24.0,-100.00,WSW,256,0.0,64.0,77,0.00,,,0.06,0.000000,,2013-03-08 06:42:00,
2013-03-08 02:11:00,29.0,25.0,-100.00,SSW,207,1.0,117.0,85,0.00,,,0.06,0.000000,,2013-03-08 07:11:00,
2013-03-08 02:22:00,29.0,25.0,-100.00,SSW,207,1.0,117.0,85,0.00,,,0.06,0.000000,,2013-03-08 07:22:00,
2013-03-08 02:32:00,29.0,25.0,-100.00,SSW,207,1.0,117.0,85,0.00,,,0.06,0.000000,,2013-03-08 07:32:00,
2013-03-08 02:42:00,29.0,25.0,-100.00,SSW,207,1.0,117.0,85,0.00,,,0.06,0.000000,,2013-03-08 07:42:00,
2013-03-08 03:11:00,27.0,24.0,-100.00,West,274,0.0,13.0,88,0.00,,,0.06,0.000000,,2013-03-08 08:11:00,
2013-03-08 03:22:00,27.0,24.0,-100.00,West,274,0.0,13.0,88,0.00,,,0.06,0.000000,,2013-03-08 08:22:00,
2013-03-08 03:32:00,27.0,24.0,-100.00,West,274,0.0,13.0,88,0.00,,,0.06,0.000000,,2013-03-08 08:32:00,
2013-03-08 03:42:00,27.0,24.0,-100.00,West,274,0.0,13.0,88,0.00,,,0.06,0.000000,,2013-03-08 08:42:00,
2013-03-08 04:11:00,26.0,24.0,-100.00,WSW,258,0.0,15.0,92,0.00,,,0.06,0.000000,,2013-03-08 09:11:00,
2013-03-08 04:22:00,26.0,24.0,-100.00,WSW,258,0.0,15.0,92,0.00,,,0.06,0.000000,,2013-03-08 09:22:00,
2013-03-08 04:32:00,26.0,24.0,-100.00,WSW,258,0.0,15.0,92,0.00,,,0.06,0.000000,,2013-03-08 09:32:00,
2013-03-08 04:42:00,26.0,24.0,-100.00,WSW,258,0.0,15.0,92,0.00,,,0.06,0.000000,,2013-03-08 09:42:00,
2013-03-08 05:11:00,25.0,24.0,-100.00,WSW,253,0.0,10.0,94,0.00,,,0.06,0.000000,,2013-03-08 10:11:00,
2013-03-08 05:21:00,25.0,24.0,-100.00,WSW,253,0.0,10.0,94,0.00,,,0.06,0.000000,,2013-03-08 10:21:00,
2013-03-08 05:32:00,25.0,24.0,-100.00,WSW,253,0.0,10.0,94,0.00,,,0.06,0.000000,,2013-03-08 10:32:00,
2013-03-08 05:42:00,25.0,24.0,-100.00,WSW,253,0.0,10.0,94,0.00,,,0.06,0.000000,,2013-03-08 10:42:00,
2013-03-08 06:11:00,24.0,23.0,-100.00,NW,325,0.0,11.0,94,0.00,,,0.06,0.000000,,2013-03-08 11:11:00,
2013-03-08 06:22:00,24.0,23.0,-100.00,NW,325,0.0,11.0,94,0.00,,,0.06,0.000000,,2013-03-08 11:22:00,
2013-03-08 06:32:00,24.0,23.0,-100.00,NW,325,0.0,11.0,94,0.00,,,0.06,0.000000,,2013-03-08 11:32:00,
2013-03-08 06:42:00,24.0,23.0,-100.00,NW,325,0.0,11.0,94,0.00,,,0.06,0.000000,,2013-03-08 11:42:00,
2013-03-08 07:11:00,24.0,23.0,-100.00,NE,54,0.0,7.0,94,0.00,,,0.06,0.000000,,2013-03-08 12:11:00,
2013-03-08 07:22:00,24.0,23.0,-100.00,NE,54,0.0,7.0,94,0.00,,,0.06,0.000000,,2013-03-08 12:22:00,
2013-03-08 07:32:00,24.0,23.0,-100.00,NE,54,0.0,7.0,94,0.00,,,0.06,0.000000,,2013-03-08 12:32:00,
2013-03-08 07:43:00,24.0,23.0,-100.00,NE,54,0.0,7.0,94,0.00,,,0.06,0.000000,,2013-03-08 12:43:00,
2013-03-08 08:12:00,25.0,23.0,-100.00,North,353,1.0,10.0,92,0.00,,,0.06,32.000000,,2013-03-08 13:12:00,
2013-03-08 08:22:00,25.0,23.0,-100.00,North,353,1.0,10.0,92,0.00,,,0.06,32.000000,,2013-03-08 13:22:00,
2013-03-08 08:32:00,25.0,23.0,-100.00,North,353,1.0,10.0,92,0.00,,,0.06,32.000000,,2013-03-08 13:32:00,
2013-03-08 08:42:00,25.0,23.0,-100.00,North,353,1.0,10.0,92,0.00,,,0.06,32.000000,,2013-03-08 13:42:00,
2013-03-08 09:12:00,33.0,27.0,-100.00,ENE,77,4.0,5.0,78,0.00,,,0.06,233.000000,,2013-03-08 14:12:00,
2013-03-08 09:22:00,33.0,27.0,-100.00,ENE,77,4.0,5.0,78,0.00,,,0.06,233.000000,,2013-03-08 14:22:00,
2013-03-08 09:32:00,33.0,27.0,-100.00,ENE,77,4.0,5.0,78,0.00,,,0.06,233.000000,,2013-03-08 14:32:00,
2013-03-08 09:42:00,33.0,27.0,-100.00,ENE,77,4.0,5.0,78,0.00,,,0.06,233.000000,,2013-03-08 14:42:00,
2013-03-08 10:12:00,36.0,23.0,-100.00,East,83,10.0,15.0,58,0.00,,,0.05,465.000000,,2013-03-08 15:12:00,
2013-03-08 10:22:00,36.0,23.0,-100.00,East,83,10.0,15.0,58,0.00,,,0.05,465.000000,,2013-03-08 15:22:00,
2013-03-08 10:32:00,36.0,23.0,-100.00,East,83,10.0,15.0,58,0.00,,,0.05,465.000000,,2013-03-08 15:32:00,
2013-03-08 10:42:00,36.0,23.0,-100.00,East,83,10.0,15.0,58,0.00,,,0.05,465.000000,,2013-03-08 15:42:00,
2013-03-08 11:12:00,38.0,25.0,-100.00,East,93,8.0,14.0,59,0.00,,,0.05,663.000000,,2013-03-08 16:12:00,
2013-03-08 11:22:00,38.0,25.0,-100.00,East,93,8.0,14.0,59,0.00,,,0.05,663.000000,,2013-03-08 16:22:00,
2013-03-08 11:32:00,38.0,25.0,-100.00,East,93,8.0,14.0,59,0.00,,,0.05,663.000000,,2013-03-08 16:32:00,
2013-03-08 11:42:00,38.0,25.0,-100.00,East,93,8.0,14.0,59,0.00,,,0.05,663.000000,,2013-03-08 16:42:00,
2013-03-08 12:12:00,40.0,26.0,-100.00,ENE,76,7.0,13.0,56,0.00,,,0.03,796.000000,,2013-03-08 17:12:00,
2013-03-08 12:22:00,40.0,26.0,-100.00,ENE,76,7.0,13.0,56,0.00,,,0.03,796.000000,,2013-03-08 17:22:00,
2013-03-08 12:32:00,40.0,26.0,-100.00,ENE,76,7.0,13.0,56,0.00,,,0.03,796.000000,,2013-03-08 17:32:00,
2013-03-08 12:42:00,40.0,26.0,-100.00,ENE,76,7.0,13.0,56,0.00,,,0.03,796.000000,,2013-03-08 17:42:00,
2013-03-08 13:12:00,42.0,26.0,-100.00,ENE,59,4.0,11.0,52,0.00,,,0.01,886.000000,,2013-03-08 18:12:00,
2013-03-08 13:22:00,42.0,26.0,-100.00,ENE,59,4.0,11.0,52,0.00,,,0.01,886.000000,,2013-03-08 18:22:00,
2013-03-08 13:32:00,42.0,26.0,-100.00,ENE,59,4.0,11.0,52,0.00,,,0.01,886.000000,,2013-03-08 18:32:00,
2013-03-08 13:42:00,42.0,26.0,-100.00,ENE,59,4.0,11.0,52,0.00,,,0.01,886.000000,,2013-03-08 18:42:00,
2013-03-08 14:11:00,44.0,27.0,-100.00,NNE,21,3.0,9.0,51,0.00,,,0.00,896.000000,,2013-03-08 19:11:00,
2013-03-08 14:22:00,44.0,27.0,-100.00,NNE,21,3.0,9.0,51,0.00,,,0.00,896.000000,,2013-03-08 19:22:00,
2013-03-08 14:32:00,44.0,27.0,-100.00,NNE,21,3.0,9.0,51,0.00,,,0.00,896.000000,,2013-03-08 19:32:00,
2013-03-08 14:42:00,44.0,27.0,-100.00,NNE,21,3.0,9.0,51,0.00,,,0.00,896.000000,,2013-03-08 19:42:00,
2013-03-08 15:11:00,45.0,28.0,-100.00,NE,34,3.0,11.0,51,0.00,,,0.00,826.000000,,2013-03-08 20:11:00,
2013-03-08 15:22:00,45.0,28.0,-100.00,NE,34,3.0,11.0,51,0.00,,,0.00,826.000000,,2013-03-08 20:22:00,
2013-03-08 15:32:00,45.0,28.0,-100.00,NE,34,3.0,11.0,51,0.00,,,0.00,826.000000,,2013-03-08 20:32:00,
2013-03-08 15:42:00,45.0,28.0,-100.00,NE,34,3.0,11.0,51,0.00,,,0.00,826.000000,,2013-03-08 20:42:00,
2013-03-08 16:12:00,46.0,29.0,-100.00,NNE,32,6.0,12.0,52,0.00,,,0.00,693.000000,,2013-03-08 21:12:00,
2013-03-08 16:22:00,46.0,29.0,-100.00,NNE,32,6.0,12.0,52,0.00,,,0.00,693.000000,,2013-03-08 21:22:00,
2013-03-08 16:32:00,46.0,29.0,-100.00,NNE,32,6.0,12.0,52,0.00,,,0.00,693.000000,,2013-03-08 21:32:00,
2013-03-08 16:42:00,46.0,29.0,-100.00,NNE,32,6.0,12.0,52,0.00,,,0.00,693.000000,,2013-03-08 21:42:00,
2013-03-08 17:12:00,47.0,26.0,-100.00,East,93,6.0,12.0,44,0.00,,,0.00,501.000000,,2013-03-08 22:12:00,
2013-03-08 17:22:00,47.0,26.0,-100.00,East,93,6.0,12.0,44,0.00,,,0.00,501.000000,,2013-03-08 22:22:00,
2013-03-08 17:32:00,47.0,26.0,-100.00,East,93,6.0,12.0,44,0.00,,,0.00,501.000000,,2013-03-08 22:32:00,
2013-03-08 17:42:00,47.0,26.0,-100.00,East,93,6.0,12.0,44,0.00,,,0.00,501.000000,,2013-03-08 22:42:00,
2013-03-08 18:12:00,45.0,24.0,-100.00,East,88,6.0,11.0,44,0.00,,,0.00,277.000000,,2013-03-08 23:12:00,
2013-03-08 18:22:00,45.0,24.0,-100.00,East,88,6.0,11.0,44,0.00,,,0.00,277.000000,,2013-03-08 23:22:00,
2013-03-08 18:32:00,45.0,24.0,-100.00,East,88,6.0,11.0,44,0.00,,,0.00,277.000000,,2013-03-08 23:32:00,
2013-03-08 18:42:00,45.0,24.0,-100.00,East,88,6.0,11.0,44,0.00,,,0.00,277.000000,,2013-03-08 23:42:00,
2013-03-08 19:12:00,40.0,24.0,-100.00,East,80,4.0,10.0,53,0.00,,,0.00,72.000000,,2013-03-09 00:12:00,
2013-03-08 19:22:00,40.0,24.0,-100.00,East,80,4.0,10.0,53,0.00,,,0.00,72.000000,,2013-03-09 00:22:00,
2013-03-08 19:32:00,40.0,24.0,-100.00,East,80,4.0,10.0,53,0.00,,,0.00,72.000000,,2013-03-09 00:32:00,
2013-03-08 19:42:00,40.0,24.0,-100.00,East,80,4.0,10.0,53,0.00,,,0.00,72.000000,,2013-03-09 00:42:00,
2013-03-08 20:12:00,37.0,24.0,-100.00,East,84,4.0,8.0,59,0.00,,,0.00,0.000000,,2013-03-09 01:12:00,
2013-03-08 20:22:00,37.0,24.0,-100.00,East,84,4.0,8.0,59,0.00,,,0.00,0.000000,,2013-03-09 01:22:00,
2013-03-08 20:32:00,37.0,24.0,-100.00,East,84,4.0,8.0,59,0.00,,,0.00,0.000000,,2013-03-09 01:32:00,
2013-03-08 20:42:00,37.0,24.0,-100.00,East,84,4.0,8.0,59,0.00,,,0.00,0.000000,,2013-03-09 01:42:00,
2013-03-08 22:11:00,34.0,22.0,-100.00,ENE,78,6.0,8.0,60,-99.99,,,0.00,0.000000,,2013-03-09 03:11:00,
2013-03-08 22:22:00,34.0,22.0,-100.00,ENE,78,6.0,8.0,60,-99.99,,,0.00,0.000000,,2013-03-09 03:22:00,
2013-03-08 22:32:00,34.0,22.0,-100.00,ENE,78,6.0,8.0,60,-99.99,,,0.00,0.000000,,2013-03-09 03:32:00,
2013-03-08 22:41:00,34.0,22.0,-100.00,ENE,78,6.0,8.0,60,-99.99,,,0.00,0.000000,,2013-03-09 03:41:00,
2013-03-08 23:11:00,33.0,22.0,-100.00,ESE,102,3.0,13.0,63,0.00,,,0.00,0.000000,,2013-03-09 04:11:00,
2013-03-08 23:22:00,33.0,22.0,-100.00,ESE,102,3.0,13.0,63,0.00,,,0.00,0.000000,,2013-03-09 04:22:00,
2013-03-08 23:32:00,33.0,22.0,-100.00,ESE,102,3.0,13.0,63,0.00,,,0.00,0.000000,,2013-03-09 04:32:00,
2013-03-08 23:42:00,33.0,22.0,-100.00,ESE,102,3.0,13.0,63,0.00,,,0.00,0.000000,,2013-03-09 04:42:00,